Location: Chaudavaram
(17.1556°N, 80.7572°E)
Time: 11:27:00
(UTC+00:00)

Daily predictions for brighter satellites

Satellite Brightness Start Highest point End
(mag) Time Altitude Azimuth Time Altitude Azimuth Time Altitude Azimuth
DELTA 4 R/B 4.1 12:14:24 10° SSW 12:19:13 41° SE 12:30:45 10° ENE
CZ-2C R/B 3.3 12:16:38 10° S 12:20:06 57° W 12:23:35 10° NNW
Timation 2 Rocket 4.3 12:16:01 10° S 12:21:40 43° ESE 12:27:16 10° NE
Helios 1B rocket 4.2 12:18:12 10° SSW 12:21:49 36° W 12:25:27 10° NNW
Meteor 2-2 Rocket 4.3 12:18:41 10° S 12:24:13 59° E 12:29:50 10° NNE
CZ-4B R/B 3.5 12:20:56 10° SSE 12:24:33 72° ENE 12:28:07 10° N
Cosmos 1500 2.9 12:21:33 10° N 12:25:03 71° E 12:28:33 10° S
Cosmos 2056 Rocket 4.4 12:21:01 10° SSE 12:25:32 29° E 12:30:07 10° NE
Cosmos 1437 Rocket 3.1 12:22:45 10° NNW 12:26:29 69° W 12:30:16 10° S
Cosmos 1812 2.9 12:25:41 10° S 12:29:20 72° W 12:32:59 10° N
Cosmos 1818 4.2 12:24:11 10° SW 12:29:26 57° WNW 12:34:46 10° NNE
Cosmos 2151 3.5 12:25:48 10° NNW 12:29:59 63° W 12:34:11 10° S
SL-16 R/B 2.2 12:30:24 10° N 12:36:01 66° ENE 12:41:36 10° SSE
Meteor 1-31 Rocket 3.0 12:32:25 10° S 12:36:04 71° W 12:39:43 10° NNW
ATLAS 2A CENTAUR R/B 3.6 12:36:28 10° WSW 12:38:29 28° SSW 12:42:40 10° SE
KM-V1 2.6 12:36:31 10° WNW 12:38:53 66° NNE 12:40:44 11° ESE
Delta 7925 Rocket 3.7 12:35:08 10° SW 12:39:37 51° SSE 12:43:59 13° E
SKYMED 2 4.0 12:37:59 10° N 12:42:16 66° WNW 12:46:33 10° SSW
Cosmos 1782 2.6 12:41:08 10° S 12:44:59 72° E 12:48:52 10° N
ADEOS 4.4 12:42:39 10° SE 12:46:56 26° ENE 12:51:13 10° NNE
NOSS 3-4 (A) 4.2 12:40:25 10° NNW 12:48:01 56° ENE 12:56:21 10° SE
NOSS 3-4 (C) 4.2 12:40:33 10° NNW 12:48:04 56° ENE 12:56:18 10° SE
Cosmos 192 4.3 12:44:06 10° S 12:48:57 82° ESE 12:53:50 10° NNE
Cosmos 1371 Rocket 4.1 12:44:20 10° S 12:49:23 57° ESE 12:54:29 10° NNE
Cosmos 1943 4.4 12:46:14 10° NNE 12:50:14 20° ENE 12:54:12 10° ESE
JB-3 4.5 12:48:14 10° N 12:52:02 70° WNW 12:55:46 10° SSW
Cosmos 1269 Rocket 4.2 12:49:28 10° NNW 12:54:45 78° WSW 13:00:01 10° S
Cosmos 1844 3.7 12:50:41 10° SSW 12:56:28 85° ESE 13:02:16 10° NNE
Cosmos 2026 Rocket 4.0 12:53:26 10° S 12:59:35 90° W 13:05:51 10° N
SL-08 R/B 4.2 13:02:07 10° N 13:06:34 49° WNW 13:11:04 10° SSW
Meteor 1-26 Rocket 4.1 13:01:13 10° S 13:06:34 70° E 13:12:03 10° NNE
Delta 2 Rocket 4.0 13:02:49 10° WSW 13:07:04 45° NNW 13:09:15 23° NNE
Meteor 1-25 Rocket 4.2 13:03:14 10° N 13:08:45 60° E 13:14:12 10° SSE
Stardust Del rocket 4.4 12:59:20 10° WNW 13:09:09 78° N 13:12:12 25° E
Cosmos 1420 Rocket 4.1 13:04:06 10° SSW 13:09:16 77° WNW 13:14:30 10° N
GPS 2-17 Rocket1 3.9 13:05:22 10° W 13:09:59 49° SSW 13:13:45 15° SE
IKONOS-2 4.4 13:07:28 13° NNE 13:11:13 69° ESE 13:15:24 10° S
Cosmos 44 3.5 13:07:26 10° N 13:12:23 47° ENE 13:17:02 10° SE
Cosmos 1092 Rocket 4.4 13:06:34 10° SSW 13:12:39 64° W 13:18:43 10° N
Cosmos 1624 Rocket 4.1 13:09:10 10° SSW 13:14:24 77° WNW 13:19:37 10° N
Meteor PRIRODA 3.3 13:15:49 10° SSE 13:19:15 71° ENE 13:22:11 13° N
H-2A R/B 3.5 13:15:52 10° NNW 13:19:46 28° NNE 13:21:18 26° NE
SL-4 R/B 1.7 13:17:36 10° SSW 13:20:48 50° SE 13:20:48 50° SE
Lacrosse 5 4.2 13:18:56 10° W 13:22:13 17° NW 13:25:30 10° N
Hubble Space Telescope 1.6 13:18:37 10° NW 13:22:11 32° NNE 13:22:11 32° NNE
BREEZE-M DEB (TANK) 3.2 13:12:29 10° SSW 13:25:07 60° SE 13:26:25 41° ENE
OAO 3 Copernicus 4.3 13:21:58 10° SW 13:27:00 74° SSE 13:28:29 45° ENE
CZ-4B R/B 2.9 13:33:31 10° SSE 13:37:53 75° ENE 13:39:11 44° N
Cosmos 1515 4.4 13:35:37 10° SSW 13:39:03 48° W 13:40:12 33° NNW
Centaur AC-72 3.6 13:33:02 10° W 13:39:05 85° S 13:50:39 22° ESE
Cosmos 1140 Rocket 3.3 13:34:48 10° NNW 13:39:57 83° ENE 13:45:03 10° SSE
OAO 2 Rocket 3.3 13:35:37 10° WSW 13:40:41 77° NNW 13:41:34 60° NE
FUSE 3.8 13:37:01 10° WSW 13:42:20 82° NNW 13:43:07 65° NE
COSMOS 2455 2.9 13:37:23 10° SSW 13:43:22 78° WNW 13:46:13 33° NNE
Ariane H10+ 4.5 13:38:11 10° WSW 13:43:44 20° SSW 13:46:00 14° SSE
GPS 2-14 Rocket1 3.3 13:43:25 10° WSW 13:46:07 47° WSW 13:46:07 47° WSW
Cosmos 2221 4.4 13:46:42 10° SW 13:50:23 29° W 13:54:04 10° NNW
Meteor 1-5 Rocket 4.1 13:45:22 10° N 13:51:08 71° E 13:57:02 10° SSE
ATLAS 2AS CENTAUR RB 4.2 13:48:52 10° WSW 13:53:14 34° S 14:10:46 10° ESE
YAOGAN 1 2.8 13:50:34 10° S 13:54:46 67° WSW 13:54:46 67° WSW
DELTA 2 R/B (1) 3.6 13:49:47 10° WSW 13:55:20 68° NW 13:55:50 64° N
Cosmos 2251 Rocket 4.0 14:05:50 10° NNW 14:11:05 60° WSW 14:16:21 10° S
Meteor 2-12 Rocket 4.4 14:06:14 10° S 14:11:42 74° S 14:11:42 74° S
ATLAS CENTAUR Rocket 3.5 14:36:09 10° W 14:38:45 40° WNW 14:38:45 40° WNW
ATLAS CENTAUR R/B 4.3 14:44:30 10° NNW 15:02:38 25° SSE 15:08:23 10° SSE
USA 215 4.5 21:50:17 10° NE 21:54:11 35° ENE 21:54:11 35° ENE
Longmarch 3A Rocket 4.2 22:04:30 37° E 22:04:30 37° E 22:12:47 10° ENE
Lacrosse 5 3.9 22:15:42 24° SE 22:15:42 24° SE 22:17:48 10° SE
USA 229 DEB 4.1 22:23:49 22° S 22:27:25 49° ESE 22:33:20 10° NE
USA 229 4.1 22:21:48 10° S 22:27:29 48° ESE 22:33:23 10° NE
BREEZE-M (TANK) 3.9 22:31:57 55° ESE 22:31:57 55° ESE 22:41:33 10° NE
ATLAS 2A CENTAUR R/B 4.1 22:43:46 25° NNE 22:43:46 25° NNE 22:45:26 10° NE
Sakura Rocket 4.3 22:43:34 40° ENE 22:43:34 40° ENE 22:46:12 10° ENE
Cosmos 2263 Rocket 2.9 22:45:33 43° S 22:45:33 43° S 22:49:23 10° S
H-2A R/B 3.3 22:42:46 10° NNE 22:47:21 38° E 22:52:02 10° SSE
DELTA 2 R/B (1) 3.7 22:53:59 63° SSW 22:53:59 63° SSW 22:59:03 10° SE
Cosmos 1464 Rocket 4.4 22:48:40 10° S 22:54:40 61° E 23:00:42 10° NNE
Tsikada Rocket 3.9 22:56:10 65° WSW 22:56:10 65° WSW 23:02:10 10° S
ATLAS 5 CENTAUR R/B 3.3 23:03:18 10° ESE 23:03:18 10° ESE 23:03:20 10° ESE
IRS-1C 4.1 23:00:00 10° NNE 23:05:19 81° ESE 23:10:38 10° S
Cosmos 1758 Rocket 4.4 23:03:19 10° SSE 23:07:31 49° E 23:11:41 10° NNE
Cosmos 1818 3.5 23:11:55 57° WNW 23:12:40 63° WSW 23:18:00 10° SSE
OAO 3 Rocket 3.8 23:14:29 39° N 23:14:29 39° N 23:18:27 10° NE
ERS-1 4.4 23:10:42 10° NNE 23:15:38 82° ESE 23:20:36 10° S
Delta 198 4.5 23:19:48 34° NNW 23:20:22 35° N 23:24:24 10° ENE
ASC 2 Rocket 3.6 23:21:39 37° N 23:21:40 37° N 23:25:50 10° ENE
Cosmos 2034 Rocket 4.2 23:17:39 10° S 23:23:59 74° E 23:30:19 10° N
SL-4 R/B 2.2 23:24:52 40° NNW 23:26:18 73° NE 23:30:46 10° SE
ARIANE 5 R/B 2.5 23:21:27 10° N 23:26:37 65° WNW 23:31:46 10° SSW
Lacrosse 5 rocket 2.9 23:32:02 20° N 23:32:02 20° N 23:33:47 10° N
CZ-3 Stage 3 3.3 23:32:09 14° N 23:32:09 14° N 23:33:21 10° NNE
Cosmos 2219 Rocket 2.5 23:27:30 10° SW 23:32:46 42° WNW 23:38:05 10° N
USA 281 3.4 23:26:42 10° N 23:32:48 43° WNW 23:38:55 10° SW
Cosmos 1602 Rocket 3.4 23:29:51 10° S 23:34:16 69° W 23:38:39 10° N
IRS-P3 4.1 23:31:44 10° N 23:36:56 58° WNW 23:42:08 10° SSW
CZ-3 R/B 3.3 23:22:54 23° W 23:37:00 51° NNW 23:44:16 10° ENE
Cosmos 1048 Rocket 4.1 23:33:08 10° S 23:38:20 76° ESE 23:43:28 10° NNE
Cosmos 2058 Rocket 3.3 23:37:12 31° NW 23:38:40 43° W 23:42:47 10° SSW
SL-19 R/B 4.2 23:33:44 10° N 23:38:52 52° WNW 23:43:53 10° SSW
GPS 2-15 Rocket1 3.2 23:37:17 34° WNW 23:39:14 64° N 23:43:58 10° E
USA 215 4.0 23:33:48 10° N 23:39:15 29° NW 23:41:36 23° W
Cosmos 1939 Rocket 3.0 23:37:48 25° NNW 23:39:30 41° WNW 23:43:05 10° SSW
Cosmos 1844 4.2 23:42:28 10° N 23:47:57 60° ENE 23:53:24 10° SSE
Spot 4 Rocket 4.3 23:42:57 10° NNE 23:48:04 72° ESE 23:53:11 10° S
Lacrosse 5 3.9 23:54:58 11° WSW 23:55:21 11° WSW 23:56:34 10° SW
Atlas Centaur 2 1.1 23:52:16 12° WSW 23:55:26 75° SSE 23:59:18 10° ENE
